Regional Weather Roundup
Issued by NWS

Home | Current Version | Previous Version | Text Only | Print | Product List | Glossary On
Versions: 1 2 3 4 5 6 7 8 9 10 11 12 13 14 15 16 17 18 19 20 21 22 23 24 25 26 27 28 29 30 31 32 33 34 35 36 37 38 39 40 41 42 43 44 45 46 47 48 49 50
000
ASUS43 KMKX 290711
RWRWI

WISCONSIN REGIONAL WEATHER ROUNDUP
NATIONAL WEATHER SERVICE MILWAUKEE/SULLIVAN WI
200 AM CDT FRI APR 29 2016

NOTE: "FAIR" INDICATES FEW OR NO CLOUDS BELOW 12,000 FEET WITH NO
SIGNIFICANT WEATHER AND/OR OBSTRUCTIONS TO VISIBILITY.

WIZ001-002-006>008-014>016-023>028-290800-
NORTHWEST WISCONSIN

CITY           SKY/WX    TMP DP  RH WIND       PRES   REMARKS
SUPERIOR ARPT  CLOUDY    29  29  97 CALM      30.16S
ASHLAND        PTCLDY    28  27  96 W5        30.14R WCI  23
HAYWARD        PTCLDY    33  26  75 CALM      30.12R
SIREN          CLOUDY    35  28  74 CALM      30.13R
CUMBERLAND     PTCLDY    36  34  93 SW3       30.11S
RICE LAKE      PTCLDY    39  36  87 SW3       30.13S
CHETEK         CLOUDY    39  37  91 CALM      30.12S
LADYSMITH      CLOUDY    41  37  84 S5        30.13R
EAU CLAIRE     CLOUDY    39  38  96 CALM      30.12R
MENOMONIE      CLOUDY    38  38  99 CALM      30.13R
NEW RICHMOND   CLOUDY    38  38 100 W5        30.14S WCI  35
OSCEOLA        CLOUDY    37  37 100 SW5       30.17R WCI  34
$$

WIZ003>005-009-010-017-018-290800-
NORTH CENTRAL WISCONSIN

CITY           SKY/WX    TMP DP  RH WIND       PRES   REMARKS
MANITOWISH WTR MOCLDY    37  32  81 S7        30.09S WCI  32
ARBOR VITAE    CLOUDY    39  36  87 S7        30.10S WCI  34
WOODRUFF       CLOUDY    39  36  87 S7        30.10S WCI  34
RHINELANDER    CLOUDY    37  35  92 CALM      30.10S
EAGLE RIVER    PTCLDY    38  32  79 SW5       30.09S WCI  34
LAND O LAKES   CLOUDY    40  26  59 CALM      30.10S
PHILLIPS       CLOUDY    38  35  89 S9        30.10S WCI  32
TOMAHAWK       CLOUDY    36  35  94 CALM      30.12S
MEDFORD        RAIN      37  37 100 N3        30.10S
MERRILL        DRIZZLE   37  36  98 E5        30.11S WCI  33
$$

WIZ029-030-035-036-043>047-290800-
CENTRAL WISCONSIN

CITY           SKY/WX    TMP DP  RH WIND       PRES   REMARKS
WAUSAU         CLOUDY    39  35  86 N6        30.09S WCI  35
MOSINEE        CLOUDY    36  36 100 N6        30.10S WCI  31
MARSHFIELD     CLOUDY    38  35  89 NE8       30.08S WCI  32
STEVENS POINT  DRIZZLE   36  35  96 CALM      30.10S
WAUPACA        CLOUDY    40  36  84 NW3       30.09R
WAUTOMA        LGT RAIN  38  35  89 N5        30.09R WCI  34
WISC RAPIDS    CLOUDY    39  34  82 NE7       30.10S WCI  34
CAMP DOUGLAS   CLOUDY    38  38 100 NE2       30.08S
$$

WIZ011>013-019>022-031-037>040-048>050-290800-
NORTHEAST WISCONSIN

CITY           SKY/WX    TMP DP  RH WIND       PRES   REMARKS
ANTIGO         LGT RAIN  35  34  97 NE9       30.09S WCI  28
SHAWANO        CLOUDY    42  37  82 N12       30.09S
OCONTO         CLOUDY    42  30  62 NE5       30.08F
STURGEON BAY   CLOUDY    41  34  75 N6        30.10S
GREEN BAY      CLOUDY    43  35  73 NE9       30.06F
MANITOWOC      CLOUDY    42  33  70 E7        30.06F
APPLETON       CLOUDY    37  32  81 N6        30.06R WCI  33
CLINTONVILLE   CLOUDY    39  34  81 N10       30.08S WCI  32
OSHKOSH        CLOUDY    41  33  73 NW7       30.06R
$$

WIZ032>034-041-042-053>061-290800-
SOUTHWEST WISCONSIN

CITY           SKY/WX    TMP DP  RH WIND       PRES   REMARKS
LA CROSSE      CLOUDY    40  36  86 N6        30.10F
SPARTA         CLOUDY    38  37  98 CALM      30.11R
VIROQUA        CLOUDY    37  37 100 NE7       30.08R WCI  32
BOSCOBEL       CLOUDY    41  38  89 CALM      30.09S
PRAIRIE DU CHI CLOUDY    41  37  85 N6        30.09R
PLATTEVILLE    CLOUDY    40  39  95 N5        30.07R
$$

WIZ056-057-062-063-064-067-068-290800-
SOUTH CENTRAL WISCONSIN

CITY           SKY/WX    TMP DP  RH WIND       PRES   REMARKS
REEDSBURG      DRIZZLE   38  38  98 N3        30.07S
BARABOO/DELLS  DRIZZLE   38  37  96 NE5       30.07S WCI  35
LONE ROCK      CLOUDY    41  38  89 N5        30.08S
MINERAL POINT  CLOUDY    41  39  93 CALM      30.06S
MADISON        LGT RAIN  39  38  96 NE6       30.06R FOG     WCI  35
MIDDLETON      CLOUDY    41  40  99 N5        30.06S
WATERTOWN      LGT RAIN  39  39 100 N3        30.05R
MONROE         CLOUDY    37  37 100 N3        30.05S
JANESVILLE     CLOUDY    41  41 100 CALM      30.05R
$$

WIZ051-052-058>065-066-070>072-290800-
SOUTHEAST WISCONSIN

CITY           SKY/WX    TMP DP  RH WIND       PRES   REMARKS
MILWAUKEE      CLOUDY    41  38  89 NE8       30.03F
WAUKESHA       CLOUDY    36  36 100 NE7       30.05R FOG     WCI  30
MILWAUKEE/TIMM RAIN      37  36  93 NE3       30.05S
RACINE         CLOUDY    41  38  89 N7        30.04S
BURLINGTON     CLOUDY    39  38  97 NE5       30.03R FOG
KENOSHA        CLOUDY    41  39  93 N6        30.03S FOG
FOND DU LAC    CLOUDY    41  35  79 NE5       30.05S
SHEBOYGAN      CLOUDY    40  37  89 CALM      30.05S
WEST BEND      CLOUDY    39  34  81 CALM      30.04S
JUNEAU         CLOUDY    39  38  96 NW3       30.06S
$$

LSZ147-162-290800-
LAKE SUPERIOR

STATION/POSITION TIME  TEMP    WIND        PRES    WAVE
                       AIR SEA DIR/SP/G            HT/PER
                 (UTC) (F)     (DEG/KT/KT) (MB)    (FT/S)
W MID LAKE BUOY  0650   37 36   20/  8/  8 1021.6F   1/ 5
DEVILS ISLAND    0700   37      20/  5/  6 1021.5F
SAXON HARBOR     0600   31     190/  4/  5 1019.6
$$

LMZ867-665-643>646-290800-
LAKE MICHIGAN

STATION/POSITION TIME  TEMP    WIND        PRES    WAVE
                       AIR SEA DIR/SP/G            HT/PER
                 (UTC) (F)     (DEG/KT/KT) (MB)    (FT/S)
CHAMBERS ISLAND  0600   42      10/  9/ 11 1019.0F
N MID LAKE BUOY  0650   39 38  110/  4/  4 1019.1R   1/ 3
NORTHPORT PIER   0600   42      50/  8/ 10 1019.0S
ALGOMA LAKESHORE 0600           60/  8/ 10   N/A
KEWAUNEE LAKESHO 0600   41      40/  6/  8 1017.5F
SHEBOYGAN LAKESH 0700   41      80/  3/  4 1018.4F
PORT WASHINGTON  0600   43      50/  7/  9 1018.3S
S MID LAKE BUOY  0650   41 40   50/  8/ 10 1016.3F   2/ 4
KENOSHA   LAKESH 0700   41      10/ 10/ 11 1016.9S
$$

TC  - TEMPERATURE IN CELSIUS
VSB - VISIBILITY IN STATUTE MILES
WCI - WIND CHILL INDEX
HX  - HEAT INDEX





USA.gov is the U.S. government's official web portal to all federal, state and local government web resources and services.